TimeEDT,TemperatureF,Dew PointF,Humidity,Sea Level PressureIn,VisibilityMPH,Wind Direction,Wind SpeedMPH,Gust SpeedMPH,PrecipitationIn,Events,Conditions,WindDirDegrees,DateUTC
12:52 AM,62.1,55.0,78,30.12,10.0,Calm,Calm,-,N/A,,Clear,0,2013-10-10 04:52:00
1:52 AM,61.0,54.0,78,30.10,10.0,Calm,Calm,-,N/A,,Clear,0,2013-10-10 05:52:00
2:52 AM,61.0,54.0,78,30.11,10.0,Calm,Calm,-,N/A,,Clear,0,2013-10-10 06:52:00
3:52 AM,59.0,53.1,81,30.10,10.0,Calm,Calm,-,N/A,,Partly Cloudy,0,2013-10-10 07:52:00
4:52 AM,60.1,54.0,80,30.11,10.0,ENE,3.5,-,N/A,,Partly Cloudy,60,2013-10-10 08:52:00
5:52 AM,61.0,50.0,67,30.12,10.0,ENE,4.6,-,N/A,,Partly Cloudy,60,2013-10-10 09:52:00
6:52 AM,59.0,50.0,72,30.13,10.0,ENE,3.5,-,N/A,,Partly Cloudy,70,2013-10-10 10:52:00
7:52 AM,59.0,50.0,72,30.14,10.0,Calm,Calm,-,N/A,,Mostly Cloudy,0,2013-10-10 11:52:00
8:52 AM,62.1,54.0,75,30.14,10.0,Calm,Calm,-,N/A,,Mostly Cloudy,0,2013-10-10 12:52:00
9:52 AM,64.0,54.0,70,30.14,10.0,Calm,Calm,-,N/A,,Mostly Cloudy,0,2013-10-10 13:52:00
10:52 AM,68.0,52.0,56,30.14,10.0,WNW,4.6,-,N/A,,Mostly Cloudy,300,2013-10-10 14:52:00
11:52 AM,73.0,54.0,51,30.13,10.0,West,5.8,-,N/A,,Partly Cloudy,280,2013-10-10 15:52:00
12:52 PM,75.0,55.9,51,30.11,10.0,WNW,9.2,-,N/A,,Scattered Clouds,300,2013-10-10 16:52:00
1:52 PM,77.0,57.0,50,30.08,10.0,NW,11.5,-,N/A,,Scattered Clouds,310,2013-10-10 17:52:00
2:52 PM,77.0,55.9,48,30.06,10.0,North,12.7,21.9,N/A,,Scattered Clouds,350,2013-10-10 18:52:00
3:52 PM,80.1,57.0,45,30.05,10.0,NNW,10.4,-,N/A,,Scattered Clouds,330,2013-10-10 19:52:00
4:52 PM,79.0,55.9,45,30.03,10.0,North,11.5,-,N/A,,Partly Cloudy,350,2013-10-10 20:52:00
5:52 PM,77.0,55.9,48,30.03,10.0,NW,8.1,-,N/A,,Partly Cloudy,310,2013-10-10 21:52:00
6:52 PM,73.9,57.0,55,30.02,10.0,NW,8.1,-,N/A,,Partly Cloudy,320,2013-10-10 22:52:00
7:52 PM,72.0,57.9,61,30.02,10.0,NNW,5.8,-,N/A,,Partly Cloudy,330,2013-10-10 23:52:00
8:52 PM,69.1,57.9,68,30.02,10.0,NNW,4.6,-,N/A,,Partly Cloudy,330,2013-10-11 00:52:00
9:52 PM,66.9,59.0,76,30.03,10.0,NW,4.6,-,N/A,,Partly Cloudy,310,2013-10-11 01:52:00
10:52 PM,66.0,59.0,78,30.03,10.0,NW,4.6,-,N/A,,Partly Cloudy,320,2013-10-11 02:52:00
11:52 PM,63.0,57.9,84,30.02,10.0,WNW,3.5,-,N/A,,Partly Cloudy,300,2013-10-11 03:52:00